Regional Weather Roundup
Issued by NWS

Home | Current Version | Previous Version | Graphics & Text | Print | Product List | Glossary Off
Versions: 1 2 3 4 5 6 7 8 9 10 11 12 13 14 15 16 17 18 19 20 21 22 23 24 25 26 27 28 29 30 31 32 33 34 35 36 37 38 39 40 41 42 43 44 45 46 47 48 49 50

000
ASUS45 KTFX 180710
RWRMT
MONTANA REGIONAL WEATHER ROUNDUP
NATIONAL WEATHER SERVICE GREAT FALLS MT
1200 AM MST MON DEC 18 2017

NOTE: "FAIR" INDICATES FEW OR NO CLOUDS BELOW 12000 FEET WITH NO
SIGNIFICANT WEATHER AND/OR OBSTRUCTIONS TO VISIBILITY.

MTZ001>007-043-180800-
WEST OF THE DIVIDE

CITY           SKY/WX    TMP DP  RH WIND       PRES   REMARKS
KALISPELL      LGT SNOW  34  32  92 S10       29.82F FOG     WCI  26
MISSOULA       CLOUDY    26  22  84 W3        29.93F
BUTTE          CLOUDY    31  23  72 N8        29.90F WCI  23
MULLAN PASS    SNOW      29  25  85 VRB7      29.81F VSB 1/2 WCI  22
ANACONDA         N/A     34  23  64 S26G32    29.88S WCI  21
DEER LODGE       N/A     34  25  69 SE20G28   29.86F WCI  22
EUREKA           N/A     34  30  86 MISG      29.77F
HAMILTON         N/A     39  27  60 SE17G24   29.92F WCI  30
LIBBY            N/A     30  28  93 S5        29.79F
PLAINS           N/A     34  28  79 CALM      29.88
RONAN            N/A     37  29  73 SE9       29.90R WCI  30
$$

MTZ008-052>055-180800-
SOUTHWEST MONTANA

CITY           SKY/WX    TMP DP  RH WIND       PRES   REMARKS
BOZEMAN        FAIR      21  18  88 SW5       29.94F
DILLON         CLOUDY    26  19  74 SW13      29.98S WCI  15
W YELLOWSTONE  CLOUDY    16  14  93 SW12G21   30.10S WCI   3
ENNIS          CLOUDY    25  18  74 S25G35    30.03F WCI   9
THREE FORKS      N/A     32  23  69 SW25      29.92F WCI  19
$$

MTZ009-010-012-014-046-048-049-054-180800-
EAST SLOPES AND CENTRAL MONTANA

CITY           SKY/WX    TMP DP  RH WIND       PRES   REMARKS
CUT BANK       FAIR      36  25  64 W29G41    29.60F WCI  23
GREAT FALLS    FAIR      39  23  52 SW29G41   29.69F WCI  27
MALMSTROM AFB  MOCLDY    41  26  54 SW36G45   29.68F
HELENA         CLOUDY    28  22  78 NW6       29.84F WCI  22
BOWMANS CRNR   FAIR      32  23  69 S30G39    29.69F WCI  18
CHOTEAU          N/A     39  25  56 SW17G24   29.64F WCI  30
FAIRFIELD      MOCLDY    36  23  59 S30G39    29.64F WCI  23
POWER          MOCLDY    36  24  62 SW24G35   29.66F WCI  24
RAYNESFORD     CLOUDY    42  26  52 SW14G28   29.70F
ULM            MOCLDY    41  25  54 SW24G33   29.72F
$$

MTZ011-013-016-021-045-047-050-051-180800-
NORTH CENTRAL MONTANA

CITY           SKY/WX    TMP DP  RH WIND       PRES   REMARKS
HAVRE          CLOUDY    39  26  59 SW13      29.65F WCI  31
LEWISTOWN      CLOUDY    36  25  64 SW8       29.71F WCI  30
N BAR RANCH    FAIR      34  18  51 VRB6G14   29.72F WCI  29
CHINOOK          N/A     37  30  75 SW12G17   29.67R WCI  30
DENTON         CLOUDY    42  25  49 MISG      29.66F
GEYSER         MOCLDY    41  26  55 W29G39    29.64F
GRASS RANGE    FAIR      36  24  61 SW9       29.65F WCI  29
STANFORD       CLOUDY    40  28  61 SW13      29.67F
WINIFRED       CLOUDY    40  24  52 SW16      29.67F
$$

MTZ017>020-022>027-061-062-180800-
NORTHEAST MONTANA

CITY           SKY/WX    TMP DP  RH WIND       PRES   REMARKS
GLASGOW        FAIR      30  21  69 W6        29.64F WCI  24
GLENDIVE       FAIR      34  21  59 S7        29.71F WCI  28
JORDAN           N/A     31  20  63 SW9       29.70F WCI  23
SIDNEY         CLOUDY    40  22  48 SW9       29.67F
WOLF POINT     FAIR      31  22  69 CALM      29.66F
MALTA          CLEAR     30  23  74 W9        29.65F WCI  22
PLENTYWOOD       N/A     34  25  69 W8        29.60F WCI  27
POPLAR           N/A     34  21  60 CALM      29.65F
$$

MTZ028>42-056>058-180800-
SOUTHCENTRAL AND SOUTHEAST MONTANA

CITY           SKY/WX    TMP DP  RH WIND       PRES   REMARKS
BAKER          FAIR      31  23  72 SW14      29.74F WCI  21
BILLINGS       FAIR      32  22  66 SW30G38   29.77F WCI  18
LIVINGSTON     LGT SNOW  30  22  72 SW40G60   29.82F WCI  13
MILES CITY     FAIR      32  23  69 W14       29.75F WCI  22
BIG TIMBER     CLEAR     32  19  59 W30G37    29.84F WCI  18
EKALAKA          N/A     31  19  61 SW9       29.76  WCI  23
FORSYTH          N/A     37  21  52 SW10      29.75F WCI  30
HARLOWTON      MOCLDY    34  25  69 W43G54    29.73  WCI  18
LAUREL           N/A     32  23  69 SW25G36   29.81F WCI  19
ROUNDUP          N/A     38  20  48 SW21      29.69F WCI  28
$$

REGIONAL REPORTS...DAKOTAS

CITY           SKY/WX    TMP DP  RH WIND       PRES   REMARKS
WILLISTON      CLOUDY    35  23  61 SW10      29.63F WCI  27
MINOT          FAIR      34  23  64 SW13      29.61F WCI  25
DICKINSON      MOCLDY    32  19  58 W15       29.67F WCI  22
BEACH          CLOUDY    34  21  60 W13       29.73F WCI  25
CROSBY         FAIR      32  27  80 SW14      29.59F WCI  22
TIOGA          CLOUDY    34  25  69 SW13      29.62F WCI  25
BISMARCK       FAIR      33  24  69 W8        29.70F WCI  26
GRAND FORKS    FAIR      28  25  88 S14       29.67F WCI  17
FARGO          CLOUDY    31  29  92 S13       29.75F WCI  21
BUFFALO SD       N/A     32  22  66 W14       29.70F WCI  22
RAPID CITY     FAIR      28  17  63 NW7       29.83F WCI  21
$$

REGIONAL REPORTS...WYOMING/IDAHO/WASHINGTON

CITY           SKY/WX    TMP DP  RH WIND       PRES   REMARKS
GILLETTE       FAIR      30  16  56 SW17      29.84F WCI  18
SHERIDAN       FAIR      17  14  88 E3        29.81F
BUFFALO WY     FAIR      27  13  55 CALM      29.83F
CODY           FAIR      27  18  69 CALM      29.90S
YELLOWSTONE LA   N/A     13  10  88 CALM      30.09F
IDAHO FALLS    MOCLDY    20  18  92 CALM      30.23S
SALMON         CLOUDY    23  16  74 CALM      30.13F
BOISE          CLOUDY    35  25  66 S5        30.23S
SPOKANE        CLOUDY    35  34  96 S9G16     29.88S WCI  28
$$

REGIONAL REPORTS...ALBERTA

CITY           SKY/WX    TMP DP  RH WIND       PRES   REMARKS
EDMONTON       CLEAR     30  14  51 W8        29.51S WCI  23
CALGARY        MOCLDY    34  18  51 E9        29.51F WCI  26
LETHBRIDGE     MOCLDY    34  23  64 W12       29.56F WCI  25
MEDICINE HAT   PTCLDY    39  27  60 S20G28    29.55F WCI  30
$$

REGIONAL REPORTS...SASKATCHEWAN

CITY           SKY/WX    TMP DP  RH WIND       PRES   REMARKS
SWIFT CURRENT  PTCLDY    32  23  69 W13       29.54F WCI  22
REGINA         PTCLDY    28  25  86 W10       29.51F WCI  19
SASKATOON      PTCLDY    21  19  93 SW12      29.47S WCI   9
$$



USA.gov is the U.S. government's official web portal to all federal, state and local government web resources and services.